Location: Hackberry
(29.5783°N, 96.8797°W)
Time: 14:50:42
(UTC+00:00)

Transit 2A - Pass Details

Date: 10 November 2024
Orbit: 592 x 956 km, 66.7° (Epoch: 02 December)

Event Time Altitude Azimuth Distance (km) Brightness Sun altitude
Exits shadow 12:01:41 - 241° (WSW) 3,306 8.8 -10.5°
Reaches altitude 10° 12:03:54 10° 252° (WSW) 2,650 8.3 -10.1°
Maximum altitude 12:08:49 24° 304° (NW) 1,870 7.5 -9.0°
Drops below altitude 10° 12:13:48 10° 356° (N) 2,682 8.6 -8.0°
Sets 12:16:54 0° 10° (N) 3,611 9.4 -7.3°
